User: anonymous   Login
Location: Oshawa
(43.9000°N, 78.8670°W)
Time: 22:25:56
(UTC-04:00)
Language:

Thor Agena Rocket - Orbit

View from above orbital plane
View from above orbital plane
View from above satellite
View from above satellite

Ground track
Ground track

The orbit data is extracted from the following two-line orbital elements,

1   733U 64002A   17234.52832261 +.00000004 +00000-0 +19502-4 0  9996
2   733 099.1259 063.3563 0033693 347.9491 012.0881 14.32282480791389
Epoch (UTC): 22 August 2017 12:40:47
Eccentricity: 0.0033693
inclination: 99.1259°
perigee height: 760 km
apogee height: 808 km
right ascension of ascending node: 63.3563°
argument of perigee: 347.9491°
revolutions per day: 14.32282480
mean anomaly at epoch: 12.0881°
orbit number at epoch: 79138

The dashed part of the orbit path shows where the satellite is in the earth's shadow,  

DLR